Location: Paris
(48.6709°N, 2.3750°E)
Time: 09:04:05
(UTC+02:00)

LO-87 - Pass Details

Date: 28 June 2022
Orbit: 450 x 466 km, 97.4° (Epoch: 17 August)

Event Time Altitude Azimuth Distance (km) Brightness Sun altitude
Exits shadow 00:23:56 16° 102° (ESE) 1,296 ? -15.3°
Maximum altitude 00:25:31 21° 66° (ENE) 1,089 ? -15.4°
Drops below altitude 10° 00:28:12 10° 16° (NNE) 1,621 ? -15.5°
Sets 00:30:35 0° 360° (N) 2,507 ? -15.7°
